Rochester, NY

11:56 PM EDT on April 28, 2017 (GMT -0400)
Greater Rochester International

Weather History for KROC - January, 2014

Change the Weather History Date:

Thursday, January 30, 2014

  Actual Average Record
Temperature  
Mean Temperature 19 °F 24 °F  
Max Temperature 31 °F 32 °F 64 °F (2013)
Min Temperature 7 °F 17 °F -12 °F (1873)
Degree Days  
Heating Degree Days 46 41  
Month to date heating degree days 1338 1213  
Since 1 July heating degree days 3835 3666  
Cooling Degree Days 0 0  
Month to date cooling degree days 0 0  
Year to date cooling degree days 0 0  
Moisture  
Dew Point 2 °F    
Average Humidity 46    
Maximum Humidity 63    
Minimum Humidity 28    
Precipitation  
Precipitation 0.00 in 0.07 in 1.24 in (1966)
Month to date precipitation 1.23 2.34  
Year to date precipitation 1.23 2.34  
Snow  
Snow 0.00 in 0.80 in 18.00 in (1966)
Month to date snowfall 20.8 27.3  
Since 1 July snowfall 56.8 56.5  
Snow Depth 2.00 in    
Sea Level Pressure  
Sea Level Pressure 30.16 in    
Wind  
Wind Speed 11 mph (SSW)    
Max Wind Speed 21 mph    
Max Gust Speed 28 mph    
Visibility 10 miles    
Events      
T = Trace of Precipitation, MM = Missing Value Source: NWS Daily Summary

Daily Weather History Graph

Daily Weather History Graph

Search for Another Location

Airport or City:

Trip Planner

Search our weather history database for the weather conditions in past years. The results will help you decide how hot, cold, wet, or windy it might be!

Date:

Astronomy

Jan. 30, 2014 Rise Set
Actual Time 7:28 AM EST 5:20 PM EST
Civil Twilight 6:57 AM EST 5:50 PM EST
Nautical Twilight 6:23 AM EST 6:24 PM EST
Astronomical Twilight 5:50 AM EST 6:58 PM EST
Moon 6:51 AM EST (1/30) 5:31 PM EST (1/30)
Length of Visible Light 10h 53m
Length of Day
9h 52m
Waning Crescent, 0% of the Moon is Illuminated
Jan 30
Waning Crescent
Jan 30
New
Feb 6
First Quarter
Feb 14
Full
Feb 22
Last Quarter

Hourly Weather History & Observations

Time (EST) Temp. Windchill Dew Point Humidity Pressure Visibility Wind Dir Wind Speed Gust Speed Precip Events Conditions
12:54 AM 14.0 °F -0.8 °F 1.9 °F 59% 30.28 in 10.0 mi WSW 13.8 mph - N/A   Overcast
1:54 AM 10.0 °F 0.4 °F -0.9 °F 61% 30.29 in 10.0 mi SSW 5.8 mph - N/A   Partly Cloudy
2:54 AM 8.1 °F -2.0 °F -2.0 °F 64% 30.29 in 10.0 mi SW 5.8 mph - N/A   Clear
3:54 AM 10.0 °F 0.4 °F -2.0 °F 58% 30.28 in 10.0 mi SSW 5.8 mph - N/A   Clear
4:54 AM 8.1 °F -3.2 °F -2.0 °F 64% 30.28 in 10.0 mi SSW 6.9 mph - N/A   Clear
5:54 AM 10.0 °F -2.9 °F -2.0 °F 58% 30.29 in 10.0 mi SSW 9.2 mph - N/A   Clear
6:54 AM 10.0 °F -0.9 °F -2.0 °F 58% 30.30 in 10.0 mi SSW 6.9 mph - N/A   Scattered Clouds
7:54 AM 10.9 °F 0.2 °F -0.9 °F 59% 30.31 in 10.0 mi SSW 6.9 mph - N/A   Scattered Clouds
8:54 AM 15.1 °F 1.1 °F 1.0 °F 54% 30.32 in 10.0 mi SSW 12.7 mph 19.6 mph N/A   Scattered Clouds
9:54 AM 18.0 °F 3.6 °F 1.9 °F 50% 30.31 in 10.0 mi South 15.0 mph - N/A   Scattered Clouds
10:54 AM 19.9 °F 7.3 °F 3.0 °F 48% 30.30 in 10.0 mi SSW 12.7 mph 21.9 mph N/A   Partly Cloudy
11:54 AM 21.9 °F 7.8 °F 3.0 °F 44% 30.26 in 10.0 mi SSW 17.3 mph 21.9 mph N/A   Partly Cloudy
12:54 PM 24.1 °F 13.1 °F 3.0 °F 40% 30.21 in 10.0 mi South 11.5 mph 21.9 mph N/A   Partly Cloudy
1:54 PM 27.0 °F 16.1 °F 3.0 °F 36% 30.16 in 10.0 mi SSW 12.7 mph 18.4 mph N/A   Mostly Cloudy
2:54 PM 28.9 °F 19.2 °F 3.0 °F 33% 30.13 in 10.0 mi South 11.5 mph - N/A   Mostly Cloudy
3:54 PM 30.0 °F 23.2 °F 3.0 °F 32% 30.09 in 10.0 mi South 6.9 mph - N/A   Overcast
4:54 PM 30.0 °F 26.5 °F 1.9 °F 30% 30.07 in 10.0 mi South 3.5 mph - N/A   Mostly Cloudy
5:54 PM 30.0 °F 23.2 °F 3.0 °F 32% 30.03 in 10.0 mi SSE 6.9 mph - N/A   Overcast
6:54 PM 30.0 °F 21.1 °F 3.9 °F 33% 29.99 in 10.0 mi SSE 10.4 mph - N/A   Overcast
7:54 PM 30.9 °F 20.7 °F 3.9 °F 32% 29.94 in 10.0 mi South 13.8 mph 23.0 mph N/A   Overcast
8:54 PM 30.0 °F 18.3 °F 3.0 °F 32% 29.91 in 10.0 mi South 17.3 mph 27.6 mph N/A   Overcast
9:54 PM 30.0 °F 20.5 °F 3.0 °F 32% 29.90 in 10.0 mi SSW 11.5 mph 23.0 mph N/A   Mostly Cloudy
10:54 PM 30.0 °F 18.7 °F 3.9 °F 33% 29.91 in 10.0 mi SSW 16.1 mph 23.0 mph N/A   Mostly Cloudy
11:54 PM 30.0 °F 19.5 °F 3.9 °F 33% 29.92 in 10.0 mi SSW 13.8 mph - N/A   Overcast